When you browse on this site, cookies collect data to enhance your experience and personalize the content and advertising you see.
Visit our Privacy Policy to learn more. By continuing to use the site, you agree to this use of cookies and data.
EN

Hourly Weather Guanare

Today, 15 July, Wednesday

Time Temperature Precipitation Wind Pressure Humidity
00:00 +24°C° 0 mm 1 mps 743 mmHg 87%
01:00 +24°C° 0 mm 1 mps 742 mmHg 85%
02:00 +24°C° 0 mm 1 mps 742 mmHg 83%
03:00 +24°C° 0 mm 1 mps 742 mmHg 82%
04:00 +22°C° 0 mm 0 mps 742 mmHg 80%
05:00 +23°C° 0.4 mm 0 mps 742 mmHg 80%
06:00 +24°C° 0.4 mm 0 mps 743 mmHg 81%
07:00 +24°C° 0 mm 0 mps 743 mmHg 80%
08:00 +26°C° 0.5 mm 0 mps 743 mmHg 79%
09:00 +27°C° 0.5 mm 0 mps 743 mmHg 77%
10:00 +31°C° 0.5 mm 1 mps 743 mmHg 76%
11:00 +31°C° 1.1 mm 1 mps 742 mmHg 74%
12:00 +31°C° 1.1 mm 1 mps 742 mmHg 73%
13:00 +31°C° 1.1 mm 1 mps 741 mmHg 72%
14:00 +31°C° 0.5 mm 1 mps 740 mmHg 74%
15:00 +31°C° 0.5 mm 1 mps 740 mmHg 76%
16:00 +30°C° 0.5 mm 1 mps 740 mmHg 78%
17:00 +29°C° 0.8 mm 1 mps 740 mmHg 83%
18:00 +25°C° 0.8 mm 0 mps 740 mmHg 88%
19:00 +24°C° 0.8 mm 0 mps 741 mmHg 93%
20:00 +23°C° 0.4 mm 0 mps 741 mmHg 94%
21:00 +25°C° 0.4 mm 1 mps 742 mmHg 94%
22:00 +25°C° 0.4 mm 1 mps 742 mmHg 94%
23:00 +24°C° 0.2 mm 1 mps 742 mmHg 94%

Tomorrow, 16 July, Thursday

Time Temperature Precipitation Wind Pressure Humidity
00:00 +24°C° 0.2 mm 1 mps 742 mmHg 94%
01:00 +24°C° 0.2 mm 1 mps 741 mmHg 94%
02:00 +24°C° 0.1 mm 1 mps 741 mmHg 94%
03:00 +24°C° 0.1 mm 1 mps 741 mmHg 93%
04:00 +23°C° 0.1 mm 1 mps 741 mmHg 93%
05:00 +24°C° 0.8 mm 1 mps 741 mmHg 93%
06:00 +23°C° 0.8 mm 0 mps 742 mmHg 93%
07:00 +23°C° 0.8 mm 0 mps 742 mmHg 93%
08:00 +24°C° 0.9 mm 0 mps 742 mmHg 91%
09:00 +25°C° 0.9 mm 0 mps 742 mmHg 90%
10:00 +27°C° 0.9 mm 0 mps 742 mmHg 89%
11:00 +27°C° 1.8 mm 0 mps 742 mmHg 89%
12:00 +29°C° 1.8 mm 1 mps 741 mmHg 90%
13:00 +29°C° 1.8 mm 1 mps 741 mmHg 90%
14:00 +28°C° 0.6 mm 1 mps 740 mmHg 90%
15:00 +28°C° 0.6 mm 1 mps 740 mmHg 91%
16:00 +28°C° 0.6 mm 1 mps 739 mmHg 91%
17:00 +27°C° 0.1 mm 1 mps 740 mmHg 92%
18:00 +26°C° 0.1 mm 1 mps 740 mmHg 93%
19:00 +25°C° 0.1 mm 1 mps 741 mmHg 94%
20:00 +25°C° 0.2 mm 1 mps 741 mmHg 94%
21:00 +25°C° 0.2 mm 1 mps 742 mmHg 94%
22:00 +24°C° 0.2 mm 1 mps 742 mmHg 95%
23:00 +24°C° 0 mm 1 mps 742 mmHg 94%

Day after tomorrow, 17 July, Friday

Time Temperature Precipitation Wind Pressure Humidity
00:00 +24°C° 0 mm 1 mps 742 mmHg 93%
01:00 +24°C° 0 mm 1 mps 741 mmHg 91%
02:00 +24°C° 0 mm 1 mps 741 mmHg 91%
03:00 +24°C° 0 mm 1 mps 741 mmHg 91%
04:00 +23°C° 0 mm 1 mps 741 mmHg 91%
05:00 +22°C° 0.1 mm 0 mps 741 mmHg 90%
06:00 +23°C° 0.1 mm 0 mps 742 mmHg 89%
07:00 +24°C° 0.1 mm 0 mps 742 mmHg 87%
08:00 +24°C° 0.6 mm 0 mps 742 mmHg 89%
09:00 +26°C° 0.6 mm 1 mps 743 mmHg 91%
10:00 +26°C° 0.6 mm 1 mps 743 mmHg 93%
11:00 +27°C° 0.5 mm 1 mps 742 mmHg 89%
12:00 +28°C° 0.5 mm 1 mps 741 mmHg 84%
13:00 +29°C° 0.5 mm 1 mps 741 mmHg 80%
14:00 +29°C° 0.1 mm 1 mps 740 mmHg 78%
15:00 +29°C° 0.1 mm 1 mps 740 mmHg 76%
16:00 +30°C° 0.1 mm 1 mps 739 mmHg 74%
17:00 +28°C° 0.2 mm 1 mps 740 mmHg 80%
18:00 +27°C° 0.2 mm 1 mps 740 mmHg 86%
19:00 +24°C° 0.2 mm 0 mps 741 mmHg 93%
20:00 +24°C° 0.9 mm 0 mps 741 mmHg 94%
21:00 +23°C° 0.9 mm 0 mps 741 mmHg 95%
22:00 +23°C° 0.9 mm 0 mps 742 mmHg 96%
23:00 +23°C° 1 mm 0 mps 742 mmHg 96%

18 July, Saturday

Time Temperature Precipitation Wind Pressure Humidity
00:00 +23°C° 1 mm 0 mps 741 mmHg 96%
01:00 +22°C° 1 mm 0 mps 741 mmHg 96%
02:00 +22°C° 0.3 mm 0 mps 741 mmHg 96%
03:00 +22°C° 0.3 mm 0 mps 741 mmHg 96%
04:00 +22°C° 0.3 mm 0 mps 741 mmHg 96%
05:00 +22°C° 0.1 mm 0 mps 741 mmHg 95%
06:00 +25°C° 0.1 mm 1 mps 742 mmHg 95%
07:00 +26°C° 0.1 mm 1 mps 742 mmHg 94%
08:00 +27°C° 0.5 mm 1 mps 742 mmHg 89%
09:00 +28°C° 0.5 mm 2 mps 742 mmHg 84%
10:00 +29°C° 0.5 mm 2 mps 742 mmHg 80%
11:00 +30°C° 1 mm 2 mps 741 mmHg 79%
12:00 +30°C° 1 mm 2 mps 741 mmHg 79%
13:00 +31°C° 1 mm 2 mps 740 mmHg 78%
14:00 +30°C° 1 mm 2 mps 740 mmHg 81%
15:00 +30°C° 1 mm 1 mps 739 mmHg 83%
16:00 +29°C° 1 mm 1 mps 739 mmHg 85%
17:00 +28°C° 0.3 mm 1 mps 739 mmHg 88%
18:00 +25°C° 0.3 mm 0 mps 739 mmHg 91%
19:00 +24°C° 0.3 mm 0 mps 740 mmHg 94%
20:00 +24°C° 0.1 mm 0 mps 740 mmHg 94%
21:00 +23°C° 0.1 mm 0 mps 741 mmHg 95%
22:00 +23°C° 0.1 mm 0 mps 741 mmHg 95%
23:00 +23°C° 0.2 mm 0 mps 741 mmHg 96%

19 July, Sunday

Time Temperature Precipitation Wind Pressure Humidity
00:00 +23°C° 0.2 mm 0 mps 741 mmHg 96%
01:00 +22°C° 0.2 mm 0 mps 740 mmHg 96%
02:00 +22°C° 0.4 mm 0 mps 740 mmHg 96%
03:00 +22°C° 0.4 mm 0 mps 740 mmHg 96%
04:00 +22°C° 0.4 mm 0 mps 740 mmHg 96%
05:00 +22°C° 0.1 mm 0 mps 741 mmHg 95%
06:00 +23°C° 0.1 mm 0 mps 741 mmHg 94%
07:00 +24°C° 0.1 mm 0 mps 741 mmHg 93%
08:00 +25°C° 0.8 mm 0 mps 741 mmHg 88%
09:00 +29°C° 0.8 mm 1 mps 741 mmHg 82%
10:00 +30°C° 0.8 mm 1 mps 742 mmHg 77%
11:00 +30°C° 1.5 mm 1 mps 741 mmHg 79%
12:00 +30°C° 1.5 mm 1 mps 740 mmHg 82%
13:00 +30°C° 1.5 mm 1 mps 740 mmHg 84%
14:00 +30°C° 1.5 mm 1 mps 739 mmHg 85%
15:00 +29°C° 1.5 mm 1 mps 739 mmHg 86%
16:00 +27°C° 1.5 mm 0 mps 739 mmHg 86%
17:00 +26°C° 0.2 mm 0 mps 739 mmHg 89%
18:00 +25°C° 0.2 mm 0 mps 739 mmHg 91%
19:00 +24°C° 0.2 mm 0 mps 740 mmHg 94%
20:00 +23°C° 0.1 mm 0 mps 740 mmHg 94%
21:00 +23°C° 0.1 mm 0 mps 741 mmHg 94%
22:00 +25°C° 0.1 mm 1 mps 741 mmHg 94%
23:00 +24°C° 0.4 mm 1 mps 741 mmHg 95%

20 July, Monday

Time Temperature Precipitation Wind Pressure Humidity
00:00 +24°C° 0.4 mm 1 mps 741 mmHg 95%
01:00 +24°C° 0.4 mm 1 mps 740 mmHg 95%
02:00 +24°C° 0.4 mm 1 mps 740 mmHg 95%
03:00 +24°C° 0.4 mm 1 mps 740 mmHg 95%
04:00 +22°C° 0.4 mm 0 mps 740 mmHg 95%
05:00 +22°C° 0 mm 0 mps 741 mmHg 94%
06:00 +23°C° 0 mm 0 mps 741 mmHg 93%
07:00 +23°C° 0 mm 0 mps 742 mmHg 92%
08:00 +27°C° 0.5 mm 1 mps 742 mmHg 88%
09:00 +28°C° 0.5 mm 2 mps 742 mmHg 83%
10:00 +29°C° 0.5 mm 2 mps 742 mmHg 79%
11:00 +29°C° 1.3 mm 2 mps 741 mmHg 83%
12:00 +29°C° 1.3 mm 2 mps 741 mmHg 86%
13:00 +29°C° 1.3 mm 2 mps 740 mmHg 90%
14:00 +28°C° 2.7 mm 1 mps 740 mmHg 92%
15:00 +27°C° 2.7 mm 1 mps 740 mmHg 95%
16:00 +23°C° 2.7 mm 0 mps 739 mmHg 97%
17:00 +23°C° 1.5 mm 0 mps 740 mmHg 97%
18:00 +23°C° 1.5 mm 0 mps 740 mmHg 97%
19:00 +22°C° 1.5 mm 0 mps 741 mmHg 98%
20:00 +22°C° 0 mm 0 mps 741 mmHg 97%
21:00 +22°C° 0 mm 0 mps 741 mmHg 97%
22:00 +22°C° 0 mm 0 mps 742 mmHg 97%
23:00 +22°C° 0 mm 0 mps 741 mmHg 97%
Show more